(675) Ludmilla
ephemeris date magn radius delta ra dec elong phase
Today24 Jun 202613.93.289 AU2.839 AU13h00m-15°19'107.4°17.1°
Opposition21 Jun 202712.43.187 AU2.171 AU18h01m-21°39'178.1°0.6°
(675) Ludmilla - 2026-06-24
astro.vanbuitenen.nl


 
-1 year
-1 month
-1 day
Now
+1 day
+1 month
+1 year

The interactive orbit chart above shows the body's path through the solar system and its position at the given date. Green and blue lines are shown perpendicular to the ecliptic plane: Green if the path is above the ecliptic plane, blue if it is below. (Left-click and drag to rotate the view; Right-click and drag to move the view; Use scroll wheel to zoom in our out.)

The orbital elements of Ludmilla are:

            e (Eccentricity)                : 0.2048416
            a (Semimajor axis)              : 2.7672670
            i (Inclination)                 : 9.81081
            Ω (Longitude of ascending node) : 262.98793
            ω (Argument of perihelion)      : 152.33940
            M (Mean anomaly)                : 149.25728
            Epoch                           : 2026 Jun 09

            L (Longitude of perihelion)     : 235.67294
            B (Latitude of perihelion)      : 4.53702
            P (Orbital period in years)     : 4.60            
        

The light curve chart below shows the estimated development of the minor planet's magnitude.


The all-sky chart below shows the path of the minor planet over the same period as the light curve. The current position is marked yellow.





The following chart shows the path of the minor planet in the next few days. The field of view is optimized for (~10x50) binoculars and finderscopes.




Ephemerides:
Date       Time       RA (2000)    DEC (2000)    delta   radius  elong  phase   PA    magn
2026-06-24 00:00 UT   13 00 04.8   -15 19 09     2.839    3.289  107.4   17.1   110   13.9 
2026-06-24 04:06 UT   13 00 08.2   -15 18 50     2.841    3.289  107.3   17.2   110   13.9 
2026-06-25 00:00 UT   13 00 25.7   -15 17 23     2.853    3.290  106.5   17.2   110   13.9 
2026-06-26 00:00 UT   13 00 47.6   -15 15 46     2.867    3.291  105.7   17.3   111   13.9 
2026-06-27 00:00 UT   13 01 10.5   -15 14 15     2.882    3.291  104.8   17.4   111   13.9 
2026-06-28 00:00 UT   13 01 34.5   -15 12 52     2.896    3.292  103.9   17.4   111   13.9 
2026-06-29 00:00 UT   13 01 59.4   -15 11 37     2.910    3.293  103.1   17.5   111   13.9 
2026-06-30 00:00 UT   13 02 25.3   -15 10 29     2.925    3.293  102.2   17.6   111   13.9 
2026-07-01 00:00 UT   13 02 52.2   -15 09 28     2.939    3.294  101.4   17.6   111   14.0 
2026-07-02 00:00 UT   13 03 20.0   -15 08 34     2.954    3.295  100.5   17.7   111   14.0 
2026-07-03 00:00 UT   13 03 48.8   -15 07 48     2.968    3.295   99.7   17.7   111   14.0 
2026-07-04 00:00 UT   13 04 18.5   -15 07 08     2.983    3.296   98.8   17.7   111   14.0 
2026-07-05 00:00 UT   13 04 49.1   -15 06 36     2.997    3.297   98.0   17.8   112   14.0 
2026-07-06 00:00 UT   13 05 20.6   -15 06 11     3.012    3.297   97.2   17.8   112   14.0 
2026-07-07 00:00 UT   13 05 53.0   -15 05 52     3.027    3.298   96.4   17.8   112   14.0 
2026-07-08 00:00 UT   13 06 26.3   -15 05 40     3.041    3.298   95.5   17.9   112   14.0 
2026-07-09 00:00 UT   13 07 00.5   -15 05 35     3.056    3.299   94.7   17.9   112   14.1 
2026-07-10 00:00 UT   13 07 35.5   -15 05 37     3.071    3.300   93.9   17.9   112   14.1 
2026-07-11 00:00 UT   13 08 11.4   -15 05 45     3.086    3.300   93.1   17.9   112   14.1 
2026-07-12 00:00 UT   13 08 48.2   -15 06 00     3.100    3.301   92.3   17.9   112   14.1 
2026-07-13 00:00 UT   13 09 25.8   -15 06 21     3.115    3.301   91.5   17.9   112   14.1 
2026-07-14 00:00 UT   13 10 04.2   -15 06 49     3.130    3.302   90.7   17.9   112   14.1 
2026-07-15 00:00 UT   13 10 43.4   -15 07 23     3.145    3.303   89.9   17.9   112   14.1 
2026-07-16 00:00 UT   13 11 23.4   -15 08 04     3.159    3.303   89.1   17.9   113   14.1 
2026-07-17 00:00 UT   13 12 04.2   -15 08 50     3.174    3.304   88.3   17.9   113   14.1 
2026-07-18 00:00 UT   13 12 45.8   -15 09 42     3.189    3.304   87.5   17.9   113   14.2 
2026-07-19 00:00 UT   13 13 28.2   -15 10 41     3.203    3.305   86.7   17.9   113   14.2 
2026-07-20 00:00 UT   13 14 11.3   -15 11 45     3.218    3.306   85.9   17.9   113   14.2 
2026-07-21 00:00 UT   13 14 55.1   -15 12 55     3.233    3.306   85.2   17.8   113   14.2 
2026-07-22 00:00 UT   13 15 39.7   -15 14 11     3.248    3.307   84.4   17.8   113   14.2 
2026-07-23 00:00 UT   13 16 25.1   -15 15 33     3.262    3.307   83.6   17.8   113   14.2 
2026-07-24 00:00 UT   13 17 11.1   -15 16 60     3.277    3.308   82.8   17.7   113   14.2 


    Terminology:
            
    delta:  distance between minor planet and earth in AU
    radius: distance between minor planet and sun in AU
    magn:   magnitude (brightness) estimate    
    ra:     right ascension in hours (24h = 360deg)
    dec:    declination in degrees
    elong:  elongation in degrees (angle sun-earth-minor planet)    
    phase:  phase angle in degrees (angle sun-minor planet-earth)        
    AU:     Astronomical Unit (mean distance between earth and sun: 149597870.7 km
    

Orbital elements provided by the MPC (Minor Planet Center).
Calculations by a modified version of AAPlus, a C# implementation of the AA+ project by PJ Naughter from the algorithms presented in the book "Astronomical Algorithms" by Jean Meeus.
NGC2000 dso catalog and star labels from VizieR as provided by the Strasbourg astronomical Data Center.
Tycho2 catalog from the ESO archive.